Вернуться в каталог

COSMOS 2251 DEB

АктивенLEO
NORAD 38199·DEBRIS·🇷🇺 Russia

Запущен Jun 16, 1993 с Plesetsk Cosmodrome

Loading…

Ближайшие Пролёты (ближайшие 24 часа)

TLE

СвежийSource: Space-Track

Эпоха: Sep 13, 2026, 12:35 UTC

1 38199U 93036BSP 26256.52450578  .00000549  00000-0  44482-3 0  9991
2 38199  73.9581 330.5693 0366768 203.2804 155.1333 13.65180618647714

Отслеживайте COSMOS 2251 DEB в реальном времени с AllMySat

Download on the App Store